STARLINK-31251, 58836

Orbit data source: Space-Track

STARLINK-31251, 58836 is a payload satellite owned by SpaceX/Seattle (US) in LEO that was launched on Wed, 24 Jan 2024 UTC via an FALCON 9 launch vehicle from the Air Force Western Test Range (AFWTR). Payload-class satellites include a variety of spacecraft equipped with specific instruments for various scientific and technological missions. These include communications satellites like Starlink; space stations such as the ISS; scientific satellites like the Hubble; Earth observation satellites from companies like Planet Labs, Umbra, and HawkEye 360; GPS; miniature CubeSats for education and research; and military/defense satellites.

Loading next visibility...
Identifier
58836, 2024-017L
Orbit
LEO
Country
Flag of USUS
Related business
Manufacturer
SpaceX/Seattle
Mission
Operational Commercial Communications
Bus & Motor
STARLINK V2M, Unknown motor
Mass
730 kg wet, ~700 kg dry
Launch date (UTC)
2024-01-24 (2 years ago)
Launch vehicle
FALCON 9
Launch site
Air Force Western Test Range (AFWTR)
Object type
Payload
Rocket body
Debris
Shape & HBR
Box + 2 Pan, 17.7 m
Radar Cross Section
33.884 m², Large (>1 m²)

Expand to show TLE details & history
Last TLE update: 2 days ago

TLE from 2 days ago
0 STARLINK-31251
1 58836U 24017L   26171.15101939  .00001804  00000-0  73006-4 0  9993
2 58836  53.1597  88.3868 0001428  96.3042 263.8121 15.30201873135857
Epoch: 2026-06-20T03:37Z
TLE epoch observation values (Epoch: 2026-06-20T03:37:28.075Z)
Latitude
-0.00005°
Longitude
125.65002°
Altitude
476.215 km
Speed
7.629 km/s
True Right ascension
05h 53m 32s
True Declination
0° 00' 00"
Sunlit
Object was in daylight at epoch
Visualization orbit readout
Latitude
Unknown
Longitude
Unknown
Altitude
Unknown
Speed
Unknown
Apparent Right ascension
Unknown
Apparent Declination
Unknown
Sunlit
N/A
Visualization observer readout
Local Sidereal Time
21:27:04
Azimuth
Unknown
Elevation
Unknown
Doppler factor
Unknown
Orbital elements
Apogee altitude
476.445 km
Perigee altitude
474.487 km
Semi-major axis
6,853.603 km
Eccentricity
0.00014
Inclination
53.1597°
RAAN
88.3868°
Arg. of periapsis
96.3042°
True anomaly
263.79583°
Mean anomaly
263.8121°
Eccentric anomaly
263.80397°
Mean motion
3.82529 °/min
Orbital period
94.11 mins
BSTAR
0.000073006
Loading maneuver chart data...
Computing Atmospheric mass density...
Loading historical data...
Loading historical data...
Loading historical data...
Loading historical data...
Loading historical data...
Loading historical data...
Loading historical data...

Documentation

Showing up to 5 results
|